Location: Maiden
(35.5760°N, 81.2120°W)
Time: 17:50:48
(UTC-04:00)

ISS - Visible Passes

Search period start: 23 September 2017 00:00
Search period end: 03 October 2017 00:00
Orbit: 401 x 407 km, 51.6° (Epoch: 24 September)

Date Brightness Start Highest point End Pass type
(mag) Time Alt. Az. Time Alt. Az. Time Alt. Az.
23 Sep -1.9 20:00:59 10° SSE 20:02:49 14° SE 20:03:32 13° ESE visible
23 Sep -0.7 21:35:51 10° WSW 21:36:16 13° WSW 21:36:16 13° WSW visible
24 Sep -4.0 20:43:24 10° SW 20:46:39 87° SE 20:47:03 67° NE visible
25 Sep -3.2 19:51:22 10° SSW 19:54:25 38° SE 19:57:29 10° ENE visible
25 Sep -1.1 21:28:27 10° W 21:30:18 19° NW 21:30:18 19° NW visible
26 Sep -2.3 20:35:29 10° WSW 20:38:30 35° NW 20:40:37 17° NNE visible
27 Sep -3.6 19:42:52 10° SW 19:46:07 72° NW 19:49:23 10° NE visible
27 Sep -0.7 21:21:56 10° NW 21:23:05 11° NNW 21:23:25 11° NNW visible
28 Sep -1.2 20:28:12 10° WNW 20:30:28 17° NNW 20:32:45 10° NNE visible
29 Sep -1.9 19:35:03 10° W 19:37:55 28° NW 19:40:49 10° NNE visible
